Location: Newark
(44.6303°N, 123.0961°W)
Time: 14:57:26
(UTC+00:00)

Envisat - Pass Details

Date: 24 January 2020
Orbit: 764 x 766 km, 98.1° (Epoch: 17 February)

Event Time Altitude Azimuth Distance (km) Brightness Sun altitude
Rises 03:02:51 0° 200° (SSW) 3,219 6.6 -20.2°
Reaches altitude 10° 03:05:36 10° 215° (SW) 2,298 6.0 -20.7°
Maximum altitude 03:09:36 23° 267° (W) 1,578 5.4 -21.4°
Drops below altitude 10° 03:13:38 10° 320° (NW) 2,311 5.9 -22.1°
Sets 03:16:24 0° 335° (NNW) 3,243 6.5 -22.6°
